GM4ZUK-13 Weather Reports


Display with metric or nautical units.
time (UTC)temp
F
wind
direction
speed
MPH
gust
MPH
rain 1hr
in
rain 24hr
in
rain mn
in
humidity
%
barometer
mb
20260508153359 57 148 4.0 7.0 0.00 0.00 0.00 72 1023.4
20260508152457 56 146 4.0 11.0 0.00 0.00 0.00 72 1023.3
20260508151559 57 142 3.0 9.0 0.00 0.00 0.00 72 1023.2
20260508150659 59 148 3.0 6.0 0.00 0.00 0.00 67 1023.1
20260508145757 59 175 0.0 6.0 0.00 0.00 0.00 65 1023.1
20260508144857 61 134 2.0 6.0 0.00 0.00 0.00 54 1023.2
20260508143958 60 157 2.0 7.0 0.00 0.00 0.00 64 1022.9
20260508143059 61 192 2.0 6.0 0.00 0.00 0.00 53 1022.9
20260508142159 62 247 1.0 2.0 0.00 0.00 0.00 53 1023.0
20260508141257 61 245 0.0 4.0 0.00 0.00 0.00 49 1022.7
20260508140358 62 251 1.0 4.0 0.00 0.00 0.00 52 1022.8
20260508135459 61 226 2.0 4.0 0.00 0.00 0.00 49 1022.8
20260508134557 62 202 1.0 4.0 0.00 0.00 0.00 52 1022.6
20260508133913 63 212 2.0 4.0 0.00 0.00 0.00 51 1022.6
20260508133010 62 220 1.0 6.0 0.00 0.00 0.00 54 1022.5
20260508131859 62 188 2.0 6.0 0.00 0.00 0.00 52 1022.4
20260508130959 62 212 1.0 4.0 0.00 0.00 0.00 50 1022.4
20260508130059 62 196 2.0 6.0 0.00 0.00 0.00 50 1022.6
20260508125157 65 220 2.0 4.0 0.00 0.00 0.00 46 1022.5
20260508124259 62 254 2.0 4.0 0.00 0.00 0.00 50 1022.5
20260508123609 64 247 1.0 4.0 0.00 0.00 0.00 52 1022.2
20260508122457 63 248 1.0 4.0 0.00 0.00 0.00 53 1022.3
20260508121559 62 206 2.0 8.0 0.00 0.00 0.00 51 1022.1
20260508120657 62 165 0.0 4.0 0.00 0.00 0.00 59 1022.3
20260508115758 61 179 2.0 8.0 0.00 0.00 0.00 59 1022.3
20260508114859 60 180 4.0 4.0 0.00 0.00 0.00 59 1022.2
20260508113959 60 192 3.0 6.0 0.00 0.00 0.00 57 1022.3
20260508113058 60 225 2.0 2.0 0.00 0.00 0.00 60 1021.9
20260508112157 60 193 2.0 7.0 0.00 0.00 0.00 60 1022.0
20260508111259 61 222 2.0 2.0 0.00 0.00 0.00 58 1021.9
20260508110357 60 189 1.0 11.0 0.00 0.00 0.00 61 1021.7
20260508105457 60 180 2.0 11.0 0.00 0.00 0.00 62 1022.0
20260508104812 59 192 5.0 11.0 0.00 0.00 0.00 60 1021.8
20260508103909 59 215 2.0 4.0 0.00 0.00 0.00 58 1022.0
20260508102759 60 231 1.0 4.0 0.00 0.00 0.00 60 1021.9
20260508101859 58 262 2.0 4.0 0.00 0.00 0.00 62 1021.7
20260508100957 58 252 2.0 4.0 0.00 0.00 0.00 61 1021.7
20260508100059 58 241 2.0 4.0 0.00 0.00 0.00 64 1022.0
20260508095159 57 236 2.0 4.0 0.00 0.00 0.00 64 1021.8
20260508094259 57 251 2.0 2.0 0.00 0.00 0.00 66 1021.9
20260508093359 57 238 0.0 4.0 0.00 0.00 0.00 68 1021.9
20260508092459 56 247 2.0 2.0 0.00 0.00 0.00 68 1022.0
20260508091559 56 247 0.0 2.0 0.00 0.00 0.00 71 1022.0
20260508090659 55 241 1.0 2.0 0.00 0.00 0.00 72 1021.7
20260508085758 55 195 0.0 2.0 0.00 0.00 0.00 73 1021.7
20260508084859 56 180 0.0 2.0 0.00 0.00 0.00 73 1021.7
20260508083959 55 180 1.0 2.0 0.00 0.00 0.00 74 1021.5
20260508083312 54 169 0.0 4.0 0.00 0.00 0.00 74 1021.6
20260508082157 55 194 1.0 7.0 0.00 0.00 0.00 73 1021.5
20260508081257 55 197 2.0 4.0 0.00 0.00 0.00 74 1021.4
20260508080357 55 177 2.0 4.0 0.00 0.00 0.00 75 1021.3
20260508075712 56 180 1.0 4.0 0.00 0.00 0.00 75 1021.3
20260508074600 55 203 1.0 4.0 0.00 0.00 0.00 76 1021.4
20260508073659 55 196 0.0 4.0 0.00 0.00 0.00 77 1021.2
20260508073009 55 180 1.0 6.0 0.00 0.00 0.00 78 1021.1
20260508071859 53 216 1.0 2.0 0.00 0.00 0.00 80 1021.0
20260508071208 52 166 0.0 2.0 0.00 0.00 0.00 81 1020.9
20260508070057 52 112 0.0 2.0 0.00 0.00 0.00 81 1020.8
20260508065158 51 112 0.0 4.0 0.00 0.00 0.00 82 1020.8
20260508064259 51 128 2.0 4.0 0.00 0.00 0.00 81 1020.5
20260508063358 50 119 2.0 4.0 0.00 0.00 0.00 82 1020.3
20260508062457 50 112 3.0 4.0 0.00 0.00 0.00 84 1020.4
20260508061559 50 154 2.0 2.0 0.00 0.00 0.00 83 1020.5
20260508060658 50 157 2.0 2.0 0.00 0.00 0.00 82 1020.5
20260508055759 50 0 0.0 0.0 0.00 0.00 0.00 81 1020.5
20260508054857 51 0 0.0 0.0 0.00 0.00 0.00 80 1020.4
20260508054001 51 157 0.0 2.0 0.00 0.00 0.00 83 1020.4
20260508053059 49 157 1.0 2.0 0.00 0.00 0.00 86 1020.1
20260508052158 48 157 0.0 2.0 0.00 0.00 0.00 87 1020.0
20260508051258 47 157 0.0 2.0 0.00 0.00 0.00 87 1019.9
20260508050402 47 157 0.0 2.0 0.00 0.00 0.00 87 1019.9
20260508045459 47 0 0.0 0.0 0.00 0.00 0.00 86 1019.6
20260508044811 47 184 0.0 2.0 0.00 0.00 0.00 86 1019.7
20260508043659 47 188 0.0 2.0 0.00 0.00 0.00 86 1019.6
20260508042759 47 180 0.0 2.0 0.00 0.00 0.00 86 1019.7
20260508042108 47 180 0.0 2.0 0.00 0.00 0.00 86 1019.7
20260508040959 47 178 0.0 4.0 0.00 0.00 0.00 85 1019.5
20260508040057 47 159 2.0 4.0 0.00 0.00 0.00 85 1019.6
20260508035159 47 143 2.0 6.0 0.00 0.00 0.00 85 1019.3
20260508034258 47 140 2.0 4.0 0.00 0.00 0.00 85 1019.2
20260508033357 47 139 2.0 4.0 0.00 0.00 0.00 85 1019.3
20260508032457 47 136 2.0 6.0 0.00 0.00 0.00 85 1019.4
20260508031809 48 144 2.0 4.0 0.00 0.00 0.00 85 1019.3
20260508030657 47 165 4.0 6.0 0.00 0.00 0.00 87 1019.4
20260508025757 47 165 3.0 4.0 0.00 0.00 0.00 87 1019.4
20260508025112 47 178 2.0 6.0 0.00 0.00 0.00 87 1019.3
20260508023959 47 175 3.0 6.0 0.00 0.00 0.00 87 1019.3
20260508023058 48 157 3.0 7.0 0.00 0.00 0.00 86 1019.3
20260508022159 48 162 3.0 8.0 0.00 0.00 0.00 86 1019.2
20260508021259 48 164 4.0 8.0 0.00 0.00 0.00 86 1019.2
20260508020358 47 155 4.0 7.0 0.00 0.00 0.00 86 1019.3
20260508014557 47 167 2.0 8.0 0.00 0.00 0.00 86 1019.3
20260508013659 47 177 4.0 8.0 0.00 0.00 0.00 88 1019.1
20260508012757 46 194 2.0 4.0 0.00 0.00 0.00 89 1019.1
20260508011859 46 202 0.0 4.0 0.00 0.00 0.00 88 1019.2
20260508010959 46 174 0.0 4.0 0.00 0.00 0.00 87 1019.3
20260508010059 47 179 2.0 6.0 0.00 0.00 0.00 87 1019.1
20260508005157 47 177 2.0 8.0 0.00 0.00 0.00 86 1019.4
20260508004257 48 174 2.0 7.0 0.00 0.00 0.00 85 1019.0
20260508003400 48 164 2.0 7.0 0.00 0.00 0.00 85 1019.4
20260508002459 49 161 3.0 8.0 0.00 0.00 0.00 84 1019.0
20260508001559 48 163 4.0 6.0 0.00 0.00 0.00 86 1019.0
20260508000657 47 180 2.0 4.0 0.00 0.00 0.00 87 1019.2
20260507235759 47 179 2.0 7.0 0.00 0.00 0.00 87 1019.2
20260507234859 47 182 1.0 7.0 0.00 0.00 0.00 87 1019.1
20260507233957 48 172 2.0 8.0 0.00 0.00 0.00 87 1019.1
20260507233059 48 169 4.0 8.0 0.00 0.00 0.00 87 1019.2
20260507232159 47 176 2.0 7.0 0.00 0.00 0.00 89 1019.0
20260507231259 47 157 1.0 2.0 0.00 0.00 0.00 90 1019.1
20260507230359 46 157 0.0 2.0 0.00 0.00 0.00 91 1019.3
20260507225457 45 160 0.0 2.0 0.00 0.00 0.00 90 1019.0
20260507224557 46 180 0.0 2.0 0.00 0.00 0.00 89 1019.3
20260507223657 47 0 0.0 0.0 0.00 0.00 0.00 88 1019.4
20260507223008 47 180 0.0 2.0 0.00 0.00 0.00 87 1019.2
20260507221858 48 187 1.0 7.0 0.00 0.00 0.00 87 1019.2
20260507220957 48 185 1.0 6.0 0.00 0.00 0.00 86 1019.0
20260507220059 49 163 3.0 7.0 0.00 0.00 0.00 85 1019.1
20260507215407 49 163 3.0 7.0 0.00 0.00 0.00 84 1019.1
20260507214259 50 154 2.0 8.0 0.00 0.00 0.00 83 1019.2
20260507213357 50 149 3.0 8.0 0.00 0.00 0.00 85 1019.2
20260507212710 49 158 2.0 4.0 0.00 0.00 0.00 87 1019.2
20260507211559 49 138 2.0 6.0 0.00 0.00 0.00 89 1019.4
20260507210657 49 137 2.0 4.0 0.00 0.00 0.00 89 1019.3
20260507210012 48 131 2.0 4.0 0.00 0.00 0.00 90 1019.3
20260507204859 49 131 2.0 7.0 0.00 0.00 0.00 90 1019.1
20260507203959 49 127 2.0 4.0 0.00 0.00 0.00 89 1019.0
20260507203057 49 131 2.0 4.0 0.00 0.00 0.00 89 1019.2
20260507202157 49 140 2.0 4.0 0.00 0.00 0.00 89 1019.2
20260507201257 48 142 2.0 8.0 0.00 0.00 0.00 89 1018.9
20260507200401 49 130 4.0 8.0 0.00 0.00 0.00 89 1019.0
20260507195708 49 124 4.0 9.0 0.00 0.00 0.00 89 1018.9
20260507194557 49 138 4.0 7.0 0.00 0.00 0.00 89 1018.9
20260507193659 49 137 2.0 7.0 0.00 0.00 0.00 89 1019.1
20260507192758 49 133 4.0 7.0 0.00 0.00 0.00 89 1018.7
20260507191857 49 137 2.0 8.0 0.00 0.00 0.00 89 1018.8
20260507190959 49 136 4.0 8.0 0.00 0.00 0.00 88 1019.1
20260507190059 50 151 4.0 6.0 0.00 0.00 0.00 88 1019.0
20260507185159 50 143 4.0 9.0 0.00 0.00 0.00 88 1018.9
20260507184259 49 149 5.0 8.0 0.00 0.00 0.00 88 1018.9
20260507183609 49 144 2.0 8.0 0.00 0.00 0.00 87 1018.9
20260507182713 50 136 3.0 11.0 0.00 0.00 0.00 87 1019.2
20260507181559 49 141 3.0 7.0 0.00 0.00 0.00 87 1018.8
20260507180657 49 139 2.0 7.0 0.00 0.00 0.00 87 1019.1
20260507175757 49 124 2.0 6.0 0.00 0.00 0.00 87 1019.0
20260507174857 49 126 2.0 7.0 0.00 0.00 0.00 88 1019.0
20260507173958 49 135 2.0 11.0 0.00 0.00 0.00 87 1019.0
20260507173057 49 130 3.0 6.0 0.00 0.00 0.00 85 1019.2
20260507172157 49 138 3.0 6.0 0.00 0.00 0.00 85 1019.2
20260507171259 49 128 3.0 6.0 0.00 0.00 0.00 85 1019.1
20260507170359 49 143 3.0 6.0 0.00 0.00 0.00 86 1019.2
20260507165459 50 139 3.0 7.0 0.00 0.00 0.00 86 1019.5
20260507164807 50 151 3.0 7.0 0.00 0.00 0.00 85 1019.4
20260507163657 50 155 3.0 8.0 0.00 0.00 0.00 83 1019.6
20260507162759 51 132 3.0 8.0 0.00 0.00 0.00 82 1019.3
20260507161857 51 127 6.0 11.0 0.00 0.00 0.00 83 1019.3
20260507160957 51 135 6.0 11.0 0.00 0.00 0.00 82 1019.1
20260507160059 51 145 2.0 9.0 0.00 0.00 0.00 82 1019.0
20260507155159 51 141 4.0 11.0 0.00 0.00 0.00 81 1019.2
20260507154509 51 116 4.0 8.0 0.00 0.00 0.00 80 1019.5